Data supplied by UK-AIR on 30/3/2009
All Data GMT hour ending 
Status: R =Ratified P=Provisional,P*=As supplied
,,Lullington Heath,,,,,,,,,,,,,,,,,,,,,,,
Date,time,"Nitric oxide",status,unit,"Nitrogen dioxide",status,unit,"Nitrogen oxides as nitrogen dioxide",status,unit,"Ozone",status,unit,"Sulphur dioxide",status,unit
 
01-01-2008,01:00,,,,,,,,,,,,,,,
01-01-2008,02:00,,,,,,,,,,62,R,ugm-3,,,
01-01-2008,03:00,0.0,R,ugm-3,6.3,R,ugm-3,6.3,R,ugm-3,66,R,ugm-3,,,
01-01-2008,04:00,0.0,R,ugm-3,4.2,R,ugm-3,4.2,R,ugm-3,60,R,ugm-3,,,
01-01-2008,05:00,0.0,R,ugm-3,3.6,R,ugm-3,3.6,R,ugm-3,62,R,ugm-3,,,
01-01-2008,06:00,0.0,R,ugm-3,3.6,R,ugm-3,3.6,R,ugm-3,50,R,ugm-3,,,
01-01-2008,07:00,0.3,R,ugm-3,5.9,R,ugm-3,6.3,R,ugm-3,60,R,ugm-3,,,
01-01-2008,08:00,0.6,R,ugm-3,5.0,R,ugm-3,5.9,R,ugm-3,62,R,ugm-3,,,
01-01-2008,09:00,0.3,R,ugm-3,5.9,R,ugm-3,6.3,R,ugm-3,64,R,ugm-3,,,
01-01-2008,10:00,0.6,R,ugm-3,5.9,R,ugm-3,6.9,R,ugm-3,60,R,ugm-3,,,
01-01-2008,11:00,0.0,R,ugm-3,6.3,R,ugm-3,6.3,R,ugm-3,60,R,ugm-3,,,
01-01-2008,12:00,0.0,R,ugm-3,5.9,R,ugm-3,5.9,R,ugm-3,66,R,ugm-3,,,
01-01-2008,13:00,0.0,R,ugm-3,6.7,R,ugm-3,6.7,R,ugm-3,62,R,ugm-3,,,
01-01-2008,14:00,0.0,R,ugm-3,6.7,R,ugm-3,6.7,R,ugm-3,64,R,ugm-3,,,
01-01-2008,15:00,0.0,R,ugm-3,8.0,R,ugm-3,8.0,R,ugm-3,62,R,ugm-3,,,
01-01-2008,16:00,0.3,R,ugm-3,10.5,R,ugm-3,10.9,R,ugm-3,62,R,ugm-3,,,
01-01-2008,17:00,0.0,R,ugm-3,9.2,R,ugm-3,9.2,R,ugm-3,58,R,ugm-3,,,
01-01-2008,18:00,0.3,R,ugm-3,5.9,R,ugm-3,6.3,R,ugm-3,58,R,ugm-3,,,
01-01-2008,19:00,0.3,R,ugm-3,6.3,R,ugm-3,6.7,R,ugm-3,52,R,ugm-3,,,
01-01-2008,20:00,0.3,R,ugm-3,3.6,R,ugm-3,4.0,R,ugm-3,64,R,ugm-3,,,
01-01-2008,21:00,0.6,R,ugm-3,4.2,R,ugm-3,5.2,R,ugm-3,50,R,ugm-3,,,
01-01-2008,22:00,0.3,R,ugm-3,15.9,R,ugm-3,16.2,R,ugm-3,42,R,ugm-3,,,
01-01-2008,23:00,0.0,R,ugm-3,9.6,R,ugm-3,9.6,R,ugm-3,52,R,ugm-3,,,
01-01-2008,24:00,0.0,R,ugm-3,7.4,R,ugm-3,7.4,R,ugm-3,56,R,ugm-3,,,
02-01-2008,01:00,0.4,R,ugm-3,7.8,R,ugm-3,8.4,R,ugm-3,46,R,ugm-3,,,
02-01-2008,02:00,,,,,,,,,,42,R,ugm-3,,,
02-01-2008,03:00,0.3,R,ugm-3,13.0,R,ugm-3,13.4,R,ugm-3,40,R,ugm-3,,,
02-01-2008,04:00,0.0,R,ugm-3,10.9,R,ugm-3,10.9,R,ugm-3,42,R,ugm-3,,,
02-01-2008,05:00,0.0,R,ugm-3,4.6,R,ugm-3,4.6,R,ugm-3,48,R,ugm-3,,,
02-01-2008,06:00,0.3,R,ugm-3,5.9,R,ugm-3,6.3,R,ugm-3,48,R,ugm-3,,,
02-01-2008,07:00,0.0,R,ugm-3,4.6,R,ugm-3,4.6,R,ugm-3,48,R,ugm-3,,,
02-01-2008,08:00,0.3,R,ugm-3,5.9,R,ugm-3,6.3,R,ugm-3,50,R,ugm-3,,,
02-01-2008,09:00,0.0,R,ugm-3,6.7,R,ugm-3,6.7,R,ugm-3,48,R,ugm-3,,,
02-01-2008,10:00,0.3,R,ugm-3,7.6,R,ugm-3,8.0,R,ugm-3,40,R,ugm-3,,,
02-01-2008,11:00,1.4,R,ugm-3,8.8,R,ugm-3,10.9,R,ugm-3,38,R,ugm-3,,,
02-01-2008,12:00,2.3,R,ugm-3,8.4,R,ugm-3,11.8,R,ugm-3,40,R,ugm-3,,,
02-01-2008,13:00,1.4,R,ugm-3,10.5,R,ugm-3,12.6,R,ugm-3,46,R,ugm-3,,,
02-01-2008,14:00,0.9,R,ugm-3,9.7,R,ugm-3,11.1,R,ugm-3,54,R,ugm-3,,,
02-01-2008,15:00,2.0,R,ugm-3,15.5,R,ugm-3,18.5,R,ugm-3,40,R,ugm-3,,,
02-01-2008,16:00,1.8,R,ugm-3,18.0,R,ugm-3,20.6,R,ugm-3,40,R,ugm-3,,,
02-01-2008,17:00,1.1,R,ugm-3,23.5,R,ugm-3,25.2,R,ugm-3,36,R,ugm-3,,,
02-01-2008,18:00,0.0,R,ugm-3,25.2,R,ugm-3,25.2,R,ugm-3,32,R,ugm-3,,,
02-01-2008,19:00,0.3,R,ugm-3,26.9,R,ugm-3,27.3,R,ugm-3,28,R,ugm-3,,,
02-01-2008,20:00,0.0,R,ugm-3,21.8,R,ugm-3,21.8,R,ugm-3,32,R,ugm-3,,,
02-01-2008,21:00,0.3,R,ugm-3,17.6,R,ugm-3,18.0,R,ugm-3,36,R,ugm-3,,,
02-01-2008,22:00,0.0,R,ugm-3,18.9,R,ugm-3,18.9,R,ugm-3,34,R,ugm-3,,,
02-01-2008,23:00,0.3,R,ugm-3,21.0,R,ugm-3,21.4,R,ugm-3,32,R,ugm-3,,,
02-01-2008,24:00,0.3,R,ugm-3,22.7,R,ugm-3,23.1,R,ugm-3,30,R,ugm-3,,,
03-01-2008,01:00,0.0,R,ugm-3,21.4,R,ugm-3,21.4,R,ugm-3,28,R,ugm-3,,,
03-01-2008,02:00,,,,,,,,,,32,R,ugm-3,,,
03-01-2008,03:00,0.0,R,ugm-3,13.2,R,ugm-3,13.2,R,ugm-3,40,R,ugm-3,,,
03-01-2008,04:00,0.0,R,ugm-3,11.8,R,ugm-3,11.8,R,ugm-3,38,R,ugm-3,,,
03-01-2008,05:00,0.6,R,ugm-3,12.6,R,ugm-3,13.6,R,ugm-3,34,R,ugm-3,,,
03-01-2008,06:00,0.0,R,ugm-3,13.9,R,ugm-3,13.9,R,ugm-3,30,R,ugm-3,,,
03-01-2008,07:00,0.0,R,ugm-3,13.6,R,ugm-3,13.6,R,ugm-3,30,R,ugm-3,,,
03-01-2008,08:00,0.0,R,ugm-3,16.2,R,ugm-3,16.2,R,ugm-3,30,R,ugm-3,,,
03-01-2008,09:00,0.6,R,ugm-3,15.7,R,ugm-3,16.6,R,ugm-3,30,R,ugm-3,,,
03-01-2008,10:00,0.9,R,ugm-3,15.3,R,ugm-3,16.6,R,ugm-3,28,R,ugm-3,,,
03-01-2008,11:00,1.8,R,ugm-3,17.2,R,ugm-3,19.9,R,ugm-3,24,R,ugm-3,,,
03-01-2008,12:00,1.8,R,ugm-3,19.3,R,ugm-3,22.0,R,ugm-3,24,R,ugm-3,,,
03-01-2008,13:00,3.0,R,ugm-3,22.2,R,ugm-3,26.7,R,ugm-3,18,R,ugm-3,,,
03-01-2008,14:00,2.4,R,ugm-3,24.6,R,ugm-3,28.3,R,ugm-3,14,R,ugm-3,,,
03-01-2008,15:00,2.4,R,ugm-3,25.2,R,ugm-3,28.8,R,ugm-3,16,R,ugm-3,,,
03-01-2008,16:00,0.3,R,ugm-3,22.0,R,ugm-3,22.3,R,ugm-3,22,R,ugm-3,,,
03-01-2008,17:00,0.6,R,ugm-3,23.7,R,ugm-3,24.6,R,ugm-3,16,R,ugm-3,,,
03-01-2008,18:00,0.3,R,ugm-3,20.2,R,ugm-3,20.6,R,ugm-3,20,R,ugm-3,,,
03-01-2008,19:00,0.0,R,ugm-3,19.1,R,ugm-3,19.1,R,ugm-3,22,R,ugm-3,,,
03-01-2008,20:00,0.0,R,ugm-3,17.0,R,ugm-3,17.0,R,ugm-3,24,R,ugm-3,,,
03-01-2008,21:00,0.3,R,ugm-3,19.5,R,ugm-3,19.9,R,ugm-3,22,R,ugm-3,,,
03-01-2008,22:00,0.3,R,ugm-3,17.8,R,ugm-3,18.1,R,ugm-3,22,R,ugm-3,,,
03-01-2008,23:00,0.0,R,ugm-3,17.8,R,ugm-3,17.8,R,ugm-3,24,R,ugm-3,,,
03-01-2008,24:00,0.3,R,ugm-3,15.3,R,ugm-3,15.7,R,ugm-3,28,R,ugm-3,,,
04-01-2008,01:00,0.4,R,ugm-3,17.6,R,ugm-3,18.1,R,ugm-3,26,R,ugm-3,,,
04-01-2008,02:00,,,,,,,,,,24,R,ugm-3,,,
04-01-2008,03:00,0.0,R,ugm-3,20.8,R,ugm-3,20.8,R,ugm-3,20,R,ugm-3,,,
04-01-2008,04:00,0.3,R,ugm-3,17.0,R,ugm-3,17.4,R,ugm-3,22,R,ugm-3,,,
04-01-2008,05:00,0.6,R,ugm-3,16.6,R,ugm-3,17.6,R,ugm-3,20,R,ugm-3,,,
04-01-2008,06:00,0.3,R,ugm-3,20.4,R,ugm-3,20.8,R,ugm-3,16,R,ugm-3,,,
04-01-2008,07:00,0.0,R,ugm-3,13.9,R,ugm-3,13.9,R,ugm-3,24,R,ugm-3,,,
04-01-2008,08:00,0.0,R,ugm-3,14.5,R,ugm-3,14.5,R,ugm-3,28,R,ugm-3,,,
04-01-2008,09:00,0.3,R,ugm-3,18.0,R,ugm-3,18.3,R,ugm-3,26,R,ugm-3,,,
04-01-2008,10:00,0.9,R,ugm-3,16.0,R,ugm-3,17.4,R,ugm-3,28,R,ugm-3,,,
04-01-2008,11:00,0.3,R,ugm-3,15.7,R,ugm-3,16.0,R,ugm-3,32,R,ugm-3,,,
04-01-2008,12:00,1.3,R,ugm-3,13.9,R,ugm-3,15.9,R,ugm-3,36,R,ugm-3,,,
04-01-2008,13:00,1.1,R,ugm-3,14.9,R,ugm-3,16.6,R,ugm-3,38,R,ugm-3,,,
04-01-2008,14:00,0.3,R,ugm-3,11.5,R,ugm-3,11.8,R,ugm-3,50,R,ugm-3,,,
04-01-2008,15:00,0.0,R,ugm-3,10.5,R,ugm-3,10.5,R,ugm-3,52,R,ugm-3,,,
04-01-2008,16:00,0.0,R,ugm-3,9.0,R,ugm-3,9.0,R,ugm-3,54,R,ugm-3,,,
04-01-2008,17:00,0.3,R,ugm-3,6.9,R,ugm-3,7.3,R,ugm-3,60,R,ugm-3,,,
04-01-2008,18:00,0.0,R,ugm-3,7.3,R,ugm-3,7.3,R,ugm-3,56,R,ugm-3,,,
04-01-2008,19:00,0.0,R,ugm-3,7.8,R,ugm-3,7.8,R,ugm-3,52,R,ugm-3,,,
04-01-2008,20:00,0.0,R,ugm-3,6.9,R,ugm-3,6.9,R,ugm-3,48,R,ugm-3,,,
04-01-2008,21:00,0.0,R,ugm-3,6.5,R,ugm-3,6.5,R,ugm-3,54,R,ugm-3,,,
04-01-2008,22:00,0.0,R,ugm-3,5.2,R,ugm-3,5.2,R,ugm-3,58,R,ugm-3,,,
04-01-2008,23:00,0.0,R,ugm-3,6.5,R,ugm-3,6.5,R,ugm-3,74,R,ugm-3,,,
04-01-2008,24:00,0.0,R,ugm-3,6.9,R,ugm-3,6.9,R,ugm-3,84,R,ugm-3,,,
05-01-2008,01:00,0.4,R,ugm-3,6.3,R,ugm-3,6.9,R,ugm-3,84,R,ugm-3,,,
05-01-2008,02:00,,,,,,,,,,80,R,ugm-3,,,
05-01-2008,03:00,0.0,R,ugm-3,3.8,R,ugm-3,3.8,R,ugm-3,80,R,ugm-3,,,
05-01-2008,04:00,0.0,R,ugm-3,4.8,R,ugm-3,4.8,R,ugm-3,80,R,ugm-3,,,
05-01-2008,05:00,0.0,R,ugm-3,3.4,R,ugm-3,3.4,R,ugm-3,82,R,ugm-3,,,
05-01-2008,06:00,0.0,R,ugm-3,4.8,R,ugm-3,4.8,R,ugm-3,82,R,ugm-3,,,
05-01-2008,07:00,0.0,R,ugm-3,3.8,R,ugm-3,3.8,R,ugm-3,84,R,ugm-3,,,
05-01-2008,08:00,0.0,R,ugm-3,5.2,R,ugm-3,5.2,R,ugm-3,82,R,ugm-3,,,
05-01-2008,09:00,0.3,R,ugm-3,3.8,R,ugm-3,4.2,R,ugm-3,84,R,ugm-3,,,
05-01-2008,10:00,0.0,R,ugm-3,5.2,R,ugm-3,5.2,R,ugm-3,82,R,ugm-3,,,
05-01-2008,11:00,0.6,R,ugm-3,4.4,R,ugm-3,5.3,R,ugm-3,82,R,ugm-3,,,
05-01-2008,12:00,0.0,R,ugm-3,7.8,R,ugm-3,7.8,R,ugm-3,76,R,ugm-3,,,
05-01-2008,13:00,0.3,R,ugm-3,6.5,R,ugm-3,6.9,R,ugm-3,80,R,ugm-3,,,
05-01-2008,14:00,0.3,R,ugm-3,5.5,R,ugm-3,5.9,R,ugm-3,82,R,ugm-3,,,
05-01-2008,15:00,0.3,R,ugm-3,5.2,R,ugm-3,5.5,R,ugm-3,82,R,ugm-3,,,
05-01-2008,16:00,0.6,R,ugm-3,5.2,R,ugm-3,6.1,R,ugm-3,78,R,ugm-3,,,
05-01-2008,17:00,0.3,R,ugm-3,5.5,R,ugm-3,5.9,R,ugm-3,78,R,ugm-3,,,
05-01-2008,18:00,0.0,R,ugm-3,6.5,R,ugm-3,6.5,R,ugm-3,82,R,ugm-3,,,
05-01-2008,19:00,0.0,R,ugm-3,5.2,R,ugm-3,5.2,R,ugm-3,80,R,ugm-3,,,
05-01-2008,20:00,0.3,R,ugm-3,6.1,R,ugm-3,6.5,R,ugm-3,78,R,ugm-3,,,
05-01-2008,21:00,0.0,R,ugm-3,8.2,R,ugm-3,8.2,R,ugm-3,70,R,ugm-3,,,
05-01-2008,22:00,0.0,R,ugm-3,13.8,R,ugm-3,13.8,R,ugm-3,58,R,ugm-3,,,
05-01-2008,23:00,0.0,R,ugm-3,20.1,R,ugm-3,20.1,R,ugm-3,44,R,ugm-3,,,
05-01-2008,24:00,0.0,R,ugm-3,16.8,R,ugm-3,16.8,R,ugm-3,48,R,ugm-3,,,
06-01-2008,01:00,0.0,R,ugm-3,6.9,R,ugm-3,6.9,R,ugm-3,60,R,ugm-3,,,
06-01-2008,02:00,,,,,,,,,,58,R,ugm-3,,,
06-01-2008,03:00,0.0,R,ugm-3,5.2,R,ugm-3,5.2,R,ugm-3,58,R,ugm-3,,,
06-01-2008,04:00,0.0,R,ugm-3,3.4,R,ugm-3,3.4,R,ugm-3,56,R,ugm-3,,,
06-01-2008,05:00,0.0,R,ugm-3,2.7,R,ugm-3,2.7,R,ugm-3,58,R,ugm-3,,,
06-01-2008,06:00,0.3,R,ugm-3,6.5,R,ugm-3,6.9,R,ugm-3,58,R,ugm-3,,,
06-01-2008,07:00,0.0,R,ugm-3,6.1,R,ugm-3,6.1,R,ugm-3,54,R,ugm-3,,,
06-01-2008,08:00,0.3,R,ugm-3,6.9,R,ugm-3,7.3,R,ugm-3,54,R,ugm-3,,,
06-01-2008,09:00,0.3,R,ugm-3,9.6,R,ugm-3,9.9,R,ugm-3,50,R,ugm-3,,,
06-01-2008,10:00,0.9,R,ugm-3,8.2,R,ugm-3,9.6,R,ugm-3,54,R,ugm-3,,,
06-01-2008,11:00,1.3,R,ugm-3,9.7,R,ugm-3,11.7,R,ugm-3,54,R,ugm-3,,,
06-01-2008,12:00,1.8,R,ugm-3,7.6,R,ugm-3,10.3,R,ugm-3,64,R,ugm-3,,,
06-01-2008,13:00,0.0,R,ugm-3,2.7,R,ugm-3,2.7,R,ugm-3,78,R,ugm-3,,,
06-01-2008,14:00,0.3,R,ugm-3,3.4,R,ugm-3,3.8,R,ugm-3,78,R,ugm-3,,,
06-01-2008,15:00,0.3,R,ugm-3,9.6,R,ugm-3,9.9,R,ugm-3,68,R,ugm-3,,,
06-01-2008,16:00,0.0,R,ugm-3,4.4,R,ugm-3,4.4,R,ugm-3,76,R,ugm-3,,,
06-01-2008,17:00,0.3,R,ugm-3,5.5,R,ugm-3,5.9,R,ugm-3,68,R,ugm-3,,,
06-01-2008,18:00,0.0,R,ugm-3,6.5,R,ugm-3,6.5,R,ugm-3,70,R,ugm-3,,,
06-01-2008,19:00,0.3,R,ugm-3,6.9,R,ugm-3,7.3,R,ugm-3,66,R,ugm-3,,,
06-01-2008,20:00,0.0,R,ugm-3,8.2,R,ugm-3,8.2,R,ugm-3,62,R,ugm-3,,,
06-01-2008,21:00,0.0,R,ugm-3,4.8,R,ugm-3,4.8,R,ugm-3,62,R,ugm-3,,,
06-01-2008,22:00,0.3,R,ugm-3,4.4,R,ugm-3,4.8,R,ugm-3,60,R,ugm-3,,,
06-01-2008,23:00,0.3,R,ugm-3,5.2,R,ugm-3,5.5,R,ugm-3,58,R,ugm-3,,,
06-01-2008,24:00,0.3,R,ugm-3,4.8,R,ugm-3,5.2,R,ugm-3,78,R,ugm-3,,,
07-01-2008,01:00,0.4,R,ugm-3,5.7,R,ugm-3,6.3,R,ugm-3,82,R,ugm-3,,,
07-01-2008,02:00,,,,,,,,,,82,R,ugm-3,,,
07-01-2008,03:00,0.3,R,ugm-3,5.2,R,ugm-3,5.5,R,ugm-3,84,R,ugm-3,,,
07-01-2008,04:00,0.0,R,ugm-3,4.4,R,ugm-3,4.4,R,ugm-3,82,R,ugm-3,,,
07-01-2008,05:00,0.0,R,ugm-3,3.4,R,ugm-3,3.4,R,ugm-3,82,R,ugm-3,,,
07-01-2008,06:00,0.0,R,ugm-3,3.4,R,ugm-3,3.4,R,ugm-3,82,R,ugm-3,,,
07-01-2008,07:00,0.0,R,ugm-3,3.8,R,ugm-3,3.8,R,ugm-3,82,R,ugm-3,,,
07-01-2008,08:00,0.3,R,ugm-3,3.8,R,ugm-3,4.2,R,ugm-3,82,R,ugm-3,,,
07-01-2008,09:00,0.0,R,ugm-3,5.5,R,ugm-3,5.5,R,ugm-3,78,R,ugm-3,,,
07-01-2008,10:00,0.0,R,ugm-3,4.8,R,ugm-3,4.8,R,ugm-3,78,R,ugm-3,,,
07-01-2008,11:00,0.6,R,ugm-3,4.4,R,ugm-3,5.3,R,ugm-3,78,R,ugm-3,,,
07-01-2008,12:00,0.0,R,ugm-3,3.4,R,ugm-3,3.4,R,ugm-3,78,R,ugm-3,,,
07-01-2008,13:00,0.6,R,ugm-3,3.8,R,ugm-3,4.8,R,ugm-3,80,R,ugm-3,,,
07-01-2008,14:00,0.3,R,ugm-3,4.8,R,ugm-3,5.2,R,ugm-3,82,R,ugm-3,,,
07-01-2008,15:00,0.0,R,ugm-3,5.2,R,ugm-3,5.2,R,ugm-3,80,R,ugm-3,,,
07-01-2008,16:00,0.3,R,ugm-3,6.1,R,ugm-3,6.5,R,ugm-3,74,R,ugm-3,,,
07-01-2008,17:00,0.3,R,ugm-3,5.2,R,ugm-3,5.5,R,ugm-3,76,R,ugm-3,,,
07-01-2008,18:00,0.0,R,ugm-3,6.9,R,ugm-3,6.9,R,ugm-3,72,R,ugm-3,,,
07-01-2008,19:00,0.0,R,ugm-3,8.2,R,ugm-3,8.2,R,ugm-3,68,R,ugm-3,,,
07-01-2008,20:00,0.0,R,ugm-3,5.2,R,ugm-3,5.2,R,ugm-3,72,R,ugm-3,,,
07-01-2008,21:00,0.0,R,ugm-3,5.5,R,ugm-3,5.5,R,ugm-3,72,R,ugm-3,,,
07-01-2008,22:00,0.0,R,ugm-3,6.1,R,ugm-3,6.1,R,ugm-3,72,R,ugm-3,,,
07-01-2008,23:00,0.0,R,ugm-3,5.2,R,ugm-3,5.2,R,ugm-3,76,R,ugm-3,,,
07-01-2008,24:00,0.3,R,ugm-3,6.9,R,ugm-3,7.3,R,ugm-3,72,R,ugm-3,,,
08-01-2008,01:00,0.0,R,ugm-3,1.7,R,ugm-3,1.7,R,ugm-3,76,R,ugm-3,,,
08-01-2008,02:00,,,,,,,,,,68,R,ugm-3,,,
08-01-2008,03:00,0.0,R,ugm-3,5.5,R,ugm-3,5.5,R,ugm-3,68,R,ugm-3,,,
08-01-2008,04:00,0.0,R,ugm-3,5.7,R,ugm-3,5.7,R,ugm-3,66,R,ugm-3,,,
08-01-2008,05:00,0.4,R,ugm-3,5.5,R,ugm-3,6.1,R,ugm-3,64,R,ugm-3,,,
08-01-2008,06:00,0.0,R,ugm-3,1.7,R,ugm-3,1.7,R,ugm-3,68,R,ugm-3,,,
08-01-2008,07:00,0.4,R,ugm-3,3.1,R,ugm-3,3.6,R,ugm-3,68,R,ugm-3,,,
08-01-2008,08:00,0.0,R,ugm-3,3.4,R,ugm-3,3.4,R,ugm-3,66,R,ugm-3,,,
08-01-2008,09:00,0.0,R,ugm-3,3.1,R,ugm-3,3.1,R,ugm-3,68,R,ugm-3,,,
08-01-2008,10:00,0.0,R,ugm-3,2.1,R,ugm-3,2.1,R,ugm-3,72,R,ugm-3,,,
08-01-2008,11:00,0.4,R,ugm-3,3.4,R,ugm-3,4.0,R,ugm-3,70,R,ugm-3,,,
08-01-2008,12:00,0.0,R,ugm-3,4.4,R,ugm-3,4.4,R,ugm-3,72,R,ugm-3,,,
08-01-2008,13:00,0.4,R,ugm-3,3.4,R,ugm-3,4.0,R,ugm-3,72,R,ugm-3,,,
08-01-2008,14:00,0.6,R,ugm-3,3.4,R,ugm-3,4.4,R,ugm-3,72,R,ugm-3,,,
08-01-2008,15:00,1.0,R,ugm-3,2.5,R,ugm-3,4.0,R,ugm-3,74,R,ugm-3,,,
08-01-2008,16:00,0.4,R,ugm-3,4.8,R,ugm-3,5.3,R,ugm-3,72,R,ugm-3,,,
08-01-2008,17:00,0.0,R,ugm-3,3.4,R,ugm-3,3.4,R,ugm-3,74,R,ugm-3,,,
08-01-2008,18:00,0.4,R,ugm-3,5.2,R,ugm-3,5.7,R,ugm-3,72,R,ugm-3,,,
08-01-2008,19:00,0.0,R,ugm-3,4.4,R,ugm-3,4.4,R,ugm-3,68,R,ugm-3,,,
08-01-2008,20:00,0.0,R,ugm-3,4.4,R,ugm-3,4.4,R,ugm-3,64,R,ugm-3,,,
08-01-2008,21:00,0.0,R,ugm-3,3.8,R,ugm-3,3.8,R,ugm-3,64,R,ugm-3,,,
08-01-2008,22:00,0.0,R,ugm-3,3.8,R,ugm-3,3.8,R,ugm-3,68,R,ugm-3,,,
08-01-2008,23:00,0.4,R,ugm-3,2.5,R,ugm-3,3.1,R,ugm-3,68,R,ugm-3,,,
08-01-2008,24:00,0.0,R,ugm-3,2.1,R,ugm-3,2.1,R,ugm-3,70,R,ugm-3,,,
09-01-2008,01:00,2.4,R,ugm-3,4.0,R,ugm-3,7.6,R,ugm-3,72,R,ugm-3,,,
09-01-2008,02:00,,,,,,,,,,78,R,ugm-3,,,
09-01-2008,03:00,2.4,R,ugm-3,1.5,R,ugm-3,5.2,R,ugm-3,78,R,ugm-3,,,
09-01-2008,04:00,2.4,R,ugm-3,5.2,R,ugm-3,8.8,R,ugm-3,76,R,ugm-3,,,
09-01-2008,05:00,2.4,R,ugm-3,1.5,R,ugm-3,5.2,R,ugm-3,82,R,ugm-3,,,
09-01-2008,06:00,2.4,R,ugm-3,1.5,R,ugm-3,5.2,R,ugm-3,84,R,ugm-3,,,
09-01-2008,07:00,2.4,R,ugm-3,1.5,R,ugm-3,5.2,R,ugm-3,84,R,ugm-3,,,
09-01-2008,08:00,2.4,R,ugm-3,2.5,R,ugm-3,6.1,R,ugm-3,84,R,ugm-3,,,
09-01-2008,09:00,2.8,R,ugm-3,3.8,R,ugm-3,8.0,R,ugm-3,80,R,ugm-3,,,
09-01-2008,10:00,2.4,R,ugm-3,2.1,R,ugm-3,5.7,R,ugm-3,76,R,ugm-3,,,
09-01-2008,11:00,2.8,R,ugm-3,1.5,R,ugm-3,5.7,R,ugm-3,76,R,ugm-3,,,
09-01-2008,12:00,,,,,,,,,,,,,,,
09-01-2008,13:00,2.4,R,ugm-3,2.5,R,ugm-3,6.1,R,ugm-3,76,R,ugm-3,,,
09-01-2008,14:00,1.8,R,ugm-3,2.5,R,ugm-3,5.2,R,ugm-3,80,R,ugm-3,,,
09-01-2008,15:00,2.4,R,ugm-3,3.8,R,ugm-3,7.4,R,ugm-3,80,R,ugm-3,,,
09-01-2008,16:00,2.4,R,ugm-3,6.1,R,ugm-3,9.7,R,ugm-3,78,R,ugm-3,,,
09-01-2008,17:00,2.1,R,ugm-3,4.2,R,ugm-3,7.4,R,ugm-3,78,R,ugm-3,,,
09-01-2008,18:00,2.1,R,ugm-3,3.4,R,ugm-3,6.7,R,ugm-3,76,R,ugm-3,,,
09-01-2008,19:00,2.4,R,ugm-3,3.8,R,ugm-3,7.4,R,ugm-3,78,R,ugm-3,,,
09-01-2008,20:00,2.4,R,ugm-3,4.2,R,ugm-3,7.8,R,ugm-3,76,R,ugm-3,,,
09-01-2008,21:00,2.1,R,ugm-3,3.8,R,ugm-3,7.1,R,ugm-3,76,R,ugm-3,,,
09-01-2008,22:00,2.4,R,ugm-3,2.5,R,ugm-3,6.1,R,ugm-3,74,R,ugm-3,,,
09-01-2008,23:00,2.4,R,ugm-3,3.8,R,ugm-3,7.4,R,ugm-3,72,R,ugm-3,,,
09-01-2008,24:00,2.4,R,ugm-3,3.4,R,ugm-3,7.1,R,ugm-3,72,R,ugm-3,,,
10-01-2008,01:00,1.3,R,ugm-3,6.9,R,ugm-3,8.8,R,ugm-3,72,R,ugm-3,,,
10-01-2008,02:00,,,,,,,,,,72,R,ugm-3,,,
10-01-2008,03:00,1.3,R,ugm-3,6.5,R,ugm-3,8.4,R,ugm-3,72,R,ugm-3,,,
10-01-2008,04:00,1.3,R,ugm-3,6.1,R,ugm-3,8.0,R,ugm-3,74,R,ugm-3,,,
10-01-2008,05:00,1.3,R,ugm-3,4.4,R,ugm-3,6.3,R,ugm-3,74,R,ugm-3,,,
10-01-2008,06:00,1.3,R,ugm-3,3.4,R,ugm-3,5.3,R,ugm-3,74,R,ugm-3,,,
10-01-2008,07:00,1.3,R,ugm-3,3.4,R,ugm-3,5.3,R,ugm-3,72,R,ugm-3,,,
10-01-2008,08:00,1.3,R,ugm-3,3.1,R,ugm-3,5.0,R,ugm-3,70,R,ugm-3,,,
10-01-2008,09:00,1.3,R,ugm-3,6.5,R,ugm-3,8.4,R,ugm-3,66,R,ugm-3,,,
10-01-2008,10:00,1.3,R,ugm-3,6.1,R,ugm-3,8.0,R,ugm-3,68,R,ugm-3,,,
10-01-2008,11:00,1.3,R,ugm-3,6.5,R,ugm-3,8.4,R,ugm-3,72,R,ugm-3,,,
10-01-2008,12:00,1.9,R,ugm-3,5.5,R,ugm-3,8.4,R,ugm-3,72,R,ugm-3,,,
10-01-2008,13:00,1.5,R,ugm-3,5.5,R,ugm-3,7.8,R,ugm-3,74,R,ugm-3,,,
10-01-2008,14:00,1.5,R,ugm-3,5.5,R,ugm-3,7.8,R,ugm-3,76,R,ugm-3,,,
10-01-2008,15:00,1.3,R,ugm-3,6.9,R,ugm-3,8.8,R,ugm-3,72,R,ugm-3,,,
10-01-2008,16:00,1.3,R,ugm-3,4.4,R,ugm-3,6.3,R,ugm-3,72,R,ugm-3,,,
10-01-2008,17:00,1.3,R,ugm-3,3.4,R,ugm-3,5.3,R,ugm-3,74,R,ugm-3,,,
10-01-2008,18:00,1.3,R,ugm-3,4.4,R,ugm-3,6.3,R,ugm-3,72,R,ugm-3,,,
10-01-2008,19:00,1.3,R,ugm-3,5.2,R,ugm-3,7.1,R,ugm-3,70,R,ugm-3,,,
10-01-2008,20:00,1.3,R,ugm-3,7.3,R,ugm-3,9.2,R,ugm-3,68,R,ugm-3,,,
10-01-2008,21:00,1.3,R,ugm-3,8.2,R,ugm-3,10.1,R,ugm-3,66,R,ugm-3,,,
10-01-2008,22:00,1.3,R,ugm-3,6.1,R,ugm-3,8.0,R,ugm-3,70,R,ugm-3,,,
10-01-2008,23:00,1.5,R,ugm-3,6.9,R,ugm-3,9.2,R,ugm-3,66,R,ugm-3,,,
10-01-2008,24:00,1.0,R,ugm-3,16.0,R,ugm-3,17.6,R,ugm-3,48,R,ugm-3,,,
11-01-2008,01:00,0.0,R,ugm-3,22.7,R,ugm-3,22.7,R,ugm-3,44,R,ugm-3,,,
11-01-2008,02:00,,,,,,,,,,58,R,ugm-3,,,
11-01-2008,03:00,0.0,R,ugm-3,12.2,R,ugm-3,12.2,R,ugm-3,54,R,ugm-3,,,
11-01-2008,04:00,0.4,R,ugm-3,15.3,R,ugm-3,15.9,R,ugm-3,50,R,ugm-3,,,
11-01-2008,05:00,0.0,R,ugm-3,10.1,R,ugm-3,10.1,R,ugm-3,60,R,ugm-3,,,
11-01-2008,06:00,0.0,R,ugm-3,6.7,R,ugm-3,6.7,R,ugm-3,70,R,ugm-3,,,
11-01-2008,07:00,0.4,R,ugm-3,8.4,R,ugm-3,9.0,R,ugm-3,58,R,ugm-3,,,
11-01-2008,08:00,0.0,R,ugm-3,9.2,R,ugm-3,9.2,R,ugm-3,52,R,ugm-3,,,
11-01-2008,09:00,0.0,R,ugm-3,6.7,R,ugm-3,6.7,R,ugm-3,64,R,ugm-3,,,
11-01-2008,10:00,0.0,R,ugm-3,8.0,R,ugm-3,8.0,R,ugm-3,62,R,ugm-3,,,
11-01-2008,11:00,0.0,R,ugm-3,10.9,R,ugm-3,10.9,R,ugm-3,46,R,ugm-3,,,
11-01-2008,12:00,0.0,R,ugm-3,13.6,R,ugm-3,13.6,R,ugm-3,42,R,ugm-3,,,
11-01-2008,13:00,0.0,R,ugm-3,9.7,R,ugm-3,9.7,R,ugm-3,52,R,ugm-3,,,
11-01-2008,14:00,0.0,R,ugm-3,8.4,R,ugm-3,8.4,R,ugm-3,66,R,ugm-3,,,
11-01-2008,15:00,0.0,R,ugm-3,8.8,R,ugm-3,8.8,R,ugm-3,72,R,ugm-3,,,
11-01-2008,16:00,0.0,R,ugm-3,7.4,R,ugm-3,7.4,R,ugm-3,74,R,ugm-3,,,
11-01-2008,17:00,0.0,R,ugm-3,6.3,R,ugm-3,6.3,R,ugm-3,82,R,ugm-3,,,
11-01-2008,18:00,0.0,R,ugm-3,7.4,R,ugm-3,7.4,R,ugm-3,78,R,ugm-3,,,
11-01-2008,19:00,0.4,R,ugm-3,6.7,R,ugm-3,7.3,R,ugm-3,76,R,ugm-3,,,
11-01-2008,20:00,0.0,R,ugm-3,5.3,R,ugm-3,5.3,R,ugm-3,74,R,ugm-3,,,
11-01-2008,21:00,0.0,R,ugm-3,5.7,R,ugm-3,5.7,R,ugm-3,78,R,ugm-3,,,
11-01-2008,22:00,0.0,R,ugm-3,10.5,R,ugm-3,10.5,R,ugm-3,62,R,ugm-3,,,
11-01-2008,23:00,0.0,R,ugm-3,23.3,R,ugm-3,23.3,R,ugm-3,32,R,ugm-3,,,
11-01-2008,24:00,0.0,R,ugm-3,22.9,R,ugm-3,22.9,R,ugm-3,30,R,ugm-3,,,
12-01-2008,01:00,1.3,R,ugm-3,18.5,R,ugm-3,20.4,R,ugm-3,32,R,ugm-3,,,
12-01-2008,02:00,,,,,,,,,,64,R,ugm-3,,,
12-01-2008,03:00,1.3,R,ugm-3,5.2,R,ugm-3,7.1,R,ugm-3,62,R,ugm-3,,,
12-01-2008,04:00,1.5,R,ugm-3,4.8,R,ugm-3,7.1,R,ugm-3,56,R,ugm-3,,,
12-01-2008,05:00,1.3,R,ugm-3,2.1,R,ugm-3,4.0,R,ugm-3,64,R,ugm-3,,,
12-01-2008,06:00,1.3,R,ugm-3,2.9,R,ugm-3,4.8,R,ugm-3,62,R,ugm-3,,,
12-01-2008,07:00,1.3,R,ugm-3,3.1,R,ugm-3,5.0,R,ugm-3,62,R,ugm-3,,,
12-01-2008,08:00,1.0,R,ugm-3,5.5,R,ugm-3,7.1,R,ugm-3,58,R,ugm-3,,,
12-01-2008,09:00,1.3,R,ugm-3,9.9,R,ugm-3,11.8,R,ugm-3,56,R,ugm-3,,,
12-01-2008,10:00,1.3,R,ugm-3,9.0,R,ugm-3,10.9,R,ugm-3,60,R,ugm-3,,,
12-01-2008,11:00,2.1,R,ugm-3,5.5,R,ugm-3,8.8,R,ugm-3,66,R,ugm-3,,,
12-01-2008,12:00,1.9,R,ugm-3,6.5,R,ugm-3,9.4,R,ugm-3,66,R,ugm-3,,,
12-01-2008,13:00,1.3,R,ugm-3,2.5,R,ugm-3,4.4,R,ugm-3,70,R,ugm-3,,,
12-01-2008,14:00,1.3,R,ugm-3,1.5,R,ugm-3,3.4,R,ugm-3,68,R,ugm-3,,,
12-01-2008,15:00,1.3,R,ugm-3,3.1,R,ugm-3,5.0,R,ugm-3,68,R,ugm-3,,,
12-01-2008,16:00,1.3,R,ugm-3,3.4,R,ugm-3,5.3,R,ugm-3,66,R,ugm-3,,,
12-01-2008,17:00,1.3,R,ugm-3,1.5,R,ugm-3,3.4,R,ugm-3,68,R,ugm-3,,,
12-01-2008,18:00,1.3,R,ugm-3,1.5,R,ugm-3,3.4,R,ugm-3,66,R,ugm-3,,,
12-01-2008,19:00,1.3,R,ugm-3,2.5,R,ugm-3,4.4,R,ugm-3,70,R,ugm-3,,,
12-01-2008,20:00,1.3,R,ugm-3,2.9,R,ugm-3,4.8,R,ugm-3,70,R,ugm-3,,,
12-01-2008,21:00,1.3,R,ugm-3,2.5,R,ugm-3,4.4,R,ugm-3,72,R,ugm-3,,,
12-01-2008,22:00,1.3,R,ugm-3,3.4,R,ugm-3,5.3,R,ugm-3,72,R,ugm-3,,,
12-01-2008,23:00,1.3,R,ugm-3,4.4,R,ugm-3,6.3,R,ugm-3,66,R,ugm-3,,,
12-01-2008,24:00,1.3,R,ugm-3,1.5,R,ugm-3,3.4,R,ugm-3,70,R,ugm-3,,,
13-01-2008,01:00,2.4,R,ugm-3,3.4,R,ugm-3,7.1,R,ugm-3,66,R,ugm-3,,,
13-01-2008,02:00,,,,,,,,,,60,R,ugm-3,,,
13-01-2008,03:00,2.4,R,ugm-3,3.8,R,ugm-3,7.4,R,ugm-3,66,R,ugm-3,,,
13-01-2008,04:00,2.4,R,ugm-3,4.4,R,ugm-3,8.0,R,ugm-3,62,R,ugm-3,,,
13-01-2008,05:00,2.4,R,ugm-3,3.4,R,ugm-3,7.1,R,ugm-3,62,R,ugm-3,,,
13-01-2008,06:00,2.4,R,ugm-3,5.2,R,ugm-3,8.8,R,ugm-3,62,R,ugm-3,,,
13-01-2008,07:00,2.4,R,ugm-3,1.7,R,ugm-3,5.3,R,ugm-3,66,R,ugm-3,,,
13-01-2008,08:00,2.4,R,ugm-3,3.4,R,ugm-3,7.1,R,ugm-3,64,R,ugm-3,,,
13-01-2008,09:00,2.4,R,ugm-3,1.7,R,ugm-3,5.3,R,ugm-3,62,R,ugm-3,,,
13-01-2008,10:00,2.4,R,ugm-3,4.4,R,ugm-3,8.0,R,ugm-3,62,R,ugm-3,,,
13-01-2008,11:00,2.4,R,ugm-3,1.7,R,ugm-3,5.3,R,ugm-3,64,R,ugm-3,,,
13-01-2008,12:00,2.4,R,ugm-3,6.1,R,ugm-3,9.7,R,ugm-3,62,R,ugm-3,,,
13-01-2008,13:00,2.1,R,ugm-3,5.2,R,ugm-3,8.4,R,ugm-3,62,R,ugm-3,,,
13-01-2008,14:00,2.4,R,ugm-3,5.5,R,ugm-3,9.2,R,ugm-3,60,R,ugm-3,,,
13-01-2008,15:00,2.4,R,ugm-3,3.4,R,ugm-3,7.1,R,ugm-3,62,R,ugm-3,,,
13-01-2008,16:00,2.8,R,ugm-3,5.2,R,ugm-3,9.4,R,ugm-3,62,R,ugm-3,,,
13-01-2008,17:00,2.4,R,ugm-3,3.4,R,ugm-3,7.1,R,ugm-3,64,R,ugm-3,,,
13-01-2008,18:00,2.4,R,ugm-3,3.4,R,ugm-3,7.1,R,ugm-3,66,R,ugm-3,,,
13-01-2008,19:00,2.4,R,ugm-3,3.1,R,ugm-3,6.7,R,ugm-3,68,R,ugm-3,,,
13-01-2008,20:00,2.4,R,ugm-3,4.4,R,ugm-3,8.0,R,ugm-3,64,R,ugm-3,,,
13-01-2008,21:00,2.4,R,ugm-3,5.5,R,ugm-3,9.2,R,ugm-3,66,R,ugm-3,,,
13-01-2008,22:00,2.4,R,ugm-3,4.4,R,ugm-3,8.0,R,ugm-3,62,R,ugm-3,,,
13-01-2008,23:00,2.4,R,ugm-3,4.4,R,ugm-3,8.0,R,ugm-3,60,R,ugm-3,,,
13-01-2008,24:00,2.4,R,ugm-3,2.7,R,ugm-3,6.3,R,ugm-3,62,R,ugm-3,,,
14-01-2008,01:00,2.4,R,ugm-3,1.7,R,ugm-3,5.3,R,ugm-3,62,R,ugm-3,,,
14-01-2008,02:00,,,,,,,,,,58,R,ugm-3,,,
14-01-2008,03:00,2.4,R,ugm-3,3.8,R,ugm-3,7.4,R,ugm-3,62,R,ugm-3,,,
14-01-2008,04:00,2.4,R,ugm-3,4.4,R,ugm-3,8.0,R,ugm-3,62,R,ugm-3,,,
14-01-2008,05:00,2.4,R,ugm-3,6.5,R,ugm-3,10.1,R,ugm-3,60,R,ugm-3,,,
14-01-2008,06:00,2.4,R,ugm-3,2.7,R,ugm-3,6.3,R,ugm-3,68,R,ugm-3,,,
14-01-2008,07:00,2.4,R,ugm-3,4.8,R,ugm-3,8.4,R,ugm-3,66,R,ugm-3,,,
14-01-2008,08:00,1.8,R,ugm-3,2.7,R,ugm-3,5.3,R,ugm-3,68,R,ugm-3,,,
14-01-2008,09:00,2.4,R,ugm-3,4.8,R,ugm-3,8.4,R,ugm-3,64,R,ugm-3,,,
14-01-2008,10:00,2.4,R,ugm-3,2.1,R,ugm-3,5.7,R,ugm-3,66,R,ugm-3,,,
14-01-2008,11:00,2.4,R,ugm-3,3.4,R,ugm-3,7.1,R,ugm-3,68,R,ugm-3,,,
14-01-2008,12:00,2.4,R,ugm-3,2.7,R,ugm-3,6.3,R,ugm-3,68,R,ugm-3,,,
14-01-2008,13:00,2.1,R,ugm-3,4.4,R,ugm-3,7.6,R,ugm-3,70,R,ugm-3,,,
14-01-2008,14:00,2.8,R,ugm-3,5.2,R,ugm-3,9.4,R,ugm-3,72,R,ugm-3,,,
14-01-2008,15:00,2.4,R,ugm-3,3.4,R,ugm-3,7.1,R,ugm-3,78,R,ugm-3,,,
14-01-2008,16:00,2.4,R,ugm-3,6.9,R,ugm-3,10.5,R,ugm-3,74,R,ugm-3,,,
14-01-2008,17:00,2.4,R,ugm-3,5.2,R,ugm-3,8.8,R,ugm-3,78,R,ugm-3,,,
14-01-2008,18:00,2.4,R,ugm-3,3.4,R,ugm-3,7.1,R,ugm-3,78,R,ugm-3,,,
14-01-2008,19:00,2.4,R,ugm-3,3.1,R,ugm-3,6.7,R,ugm-3,76,R,ugm-3,,,
14-01-2008,20:00,2.4,R,ugm-3,3.8,R,ugm-3,7.4,R,ugm-3,76,R,ugm-3,,,
14-01-2008,21:00,2.1,R,ugm-3,2.1,R,ugm-3,5.3,R,ugm-3,74,R,ugm-3,,,
14-01-2008,22:00,2.4,R,ugm-3,4.8,R,ugm-3,8.4,R,ugm-3,72,R,ugm-3,,,
14-01-2008,23:00,2.8,R,ugm-3,3.1,R,ugm-3,7.3,R,ugm-3,68,R,ugm-3,,,
14-01-2008,24:00,2.4,R,ugm-3,2.7,R,ugm-3,6.3,R,ugm-3,64,R,ugm-3,,,
15-01-2008,01:00,2.4,R,ugm-3,4.6,R,ugm-3,8.2,R,ugm-3,64,R,ugm-3,,,
15-01-2008,02:00,,,,,,,,,,66,R,ugm-3,,,
15-01-2008,03:00,2.4,R,ugm-3,5.5,R,ugm-3,9.2,R,ugm-3,64,R,ugm-3,,,
15-01-2008,04:00,2.4,R,ugm-3,3.4,R,ugm-3,7.1,R,ugm-3,66,R,ugm-3,,,
15-01-2008,05:00,2.1,R,ugm-3,3.8,R,ugm-3,7.1,R,ugm-3,66,R,ugm-3,,,
15-01-2008,06:00,2.4,R,ugm-3,5.5,R,ugm-3,9.2,R,ugm-3,66,R,ugm-3,,,
15-01-2008,07:00,2.4,R,ugm-3,3.4,R,ugm-3,7.1,R,ugm-3,66,R,ugm-3,,,
15-01-2008,08:00,2.4,R,ugm-3,3.8,R,ugm-3,7.4,R,ugm-3,66,R,ugm-3,,,
15-01-2008,09:00,2.4,R,ugm-3,3.8,R,ugm-3,7.4,R,ugm-3,70,R,ugm-3,,,
15-01-2008,10:00,2.8,R,ugm-3,4.8,R,ugm-3,9.0,R,ugm-3,68,R,ugm-3,,,
15-01-2008,11:00,,,,,,,,,,,,,,,
15-01-2008,12:00,,,,,,,,,,,,,,,
15-01-2008,13:00,2.4,R,ugm-3,3.4,R,ugm-3,7.1,R,ugm-3,70,R,ugm-3,,,
15-01-2008,14:00,2.8,R,ugm-3,4.8,R,ugm-3,9.0,R,ugm-3,68,R,ugm-3,,,
15-01-2008,15:00,2.8,R,ugm-3,5.9,R,ugm-3,10.1,R,ugm-3,64,R,ugm-3,,,
15-01-2008,16:00,2.4,R,ugm-3,7.4,R,ugm-3,11.1,R,ugm-3,64,R,ugm-3,,,
15-01-2008,17:00,2.4,R,ugm-3,9.6,R,ugm-3,13.2,R,ugm-3,64,R,ugm-3,,,
15-01-2008,18:00,2.4,R,ugm-3,8.2,R,ugm-3,11.8,R,ugm-3,66,R,ugm-3,,,
15-01-2008,19:00,2.4,R,ugm-3,5.2,R,ugm-3,8.8,R,ugm-3,74,R,ugm-3,,,
15-01-2008,20:00,2.4,R,ugm-3,3.8,R,ugm-3,7.4,R,ugm-3,84,R,ugm-3,,,
15-01-2008,21:00,2.8,R,ugm-3,4.2,R,ugm-3,8.4,R,ugm-3,88,R,ugm-3,,,
15-01-2008,22:00,2.4,R,ugm-3,4.8,R,ugm-3,8.4,R,ugm-3,86,R,ugm-3,,,
15-01-2008,23:00,2.4,R,ugm-3,4.4,R,ugm-3,8.0,R,ugm-3,84,R,ugm-3,,,